Weather History for Salina, KS

Change the Weather History Date:

Friday, January 18, 2013

  Actual Average Record
Temperature  
Mean Temperature 48 °F 31 °F  
Max Temperature 63 °F 42 °F 72 °F (1951)
Min Temperature 32 °F 20 °F -11 °F (1984)
Degree Days  
Heating Degree Days 17 34  
Month to date heating degree days 596 612  
Since 1 July heating degree days 2373 2576  
Cooling Degree Days 0 0  
Month to date cooling degree days 0 0  
Year to date cooling degree days 0 0  
Moisture  
Dew Point 28 °F    
Average Humidity 55    
Maximum Humidity 82    
Minimum Humidity 27    
Precipitation  
Precipitation 0.00 in 0.02 in 0.79 in (1979)
Month to date precipitation 0.81 0.31  
Year to date precipitation 0.81 0.31  
Sea Level Pressure  
Sea Level Pressure 30.15 in    
Wind  
Wind Speed 15 mph (SSW)    
Max Wind Speed 37 mph    
Max Gust Speed 44 mph    
Visibility 10 miles    
Events      
T = Trace of Precipitation, MM = Missing Value Source: NWS Daily Summary

Daily Weather History Graph

Daily Weather History Graph

Search for Another Location

Airport:

Trip Planner

Search our weather history database for the weather conditions in past years. The results will help you decide how hot, cold, wet, or windy it might be!

Date:

Astronomy

Jan. 18, 2013 Rise Set
Actual Time 7:46 AM CST 5:36 PM CST
Civil Twilight 7:17 AM CST 6:05 PM CST
Nautical Twilight 6:44 AM CST 6:38 PM CST
Astronomical Twilight 6:12 AM CST 7:09 PM CST
Moon 11:30 AM CST (1/18) 12:23 AM CST (1/18)
Length of Visible Light 10h 48m
Length of Day
9h 50m
Waxing Crescent, 47% of the Moon is Illuminated
Jan 18
Waxing Crescent
Jan 18
First Quarter
Jan 26
Full
Feb 3
Last Quarter
Feb 10
New

Hourly Weather History & Observations

Time (CST) Temp. Windchill Dew Point Humidity Pressure Visibility Wind Dir Wind Speed Gust Speed Precip Events Conditions
12:53 AM 34.0 °F 26.6 °F 27.0 °F 75% 30.36 in 10.0 mi South 9.2 mph - N/A   Clear
1:53 AM 34.0 °F 27.2 °F 27.0 °F 75% 30.34 in 10.0 mi South 8.1 mph - N/A   Clear
2:53 AM 33.1 °F 27.7 °F 26.1 °F 75% 30.33 in 10.0 mi South 5.8 mph - N/A   Clear
3:53 AM 34.0 °F 25.5 °F 27.0 °F 75% 30.31 in 10.0 mi South 11.5 mph - N/A   Clear
4:53 AM 34.0 °F 25.5 °F 27.0 °F 75% 30.28 in 10.0 mi South 11.5 mph - N/A   Clear
5:53 AM 35.1 °F 26.4 °F 27.0 °F 72% 30.25 in 10.0 mi South 12.7 mph - N/A   Clear
6:53 AM 35.1 °F 26.9 °F 27.0 °F 72% 30.25 in 10.0 mi South 11.5 mph - N/A   Clear
7:53 AM 36.0 °F 27.5 °F 27.0 °F 70% 30.23 in 10.0 mi South 12.7 mph - 0.00 in   Clear
8:53 AM 42.1 °F 33.3 °F 28.9 °F 60% 30.23 in 10.0 mi South 19.6 mph - N/A   Clear
9:53 AM 46.9 °F - 28.9 °F 50% 30.22 in 10.0 mi SSW 26.5 mph 33.4 mph N/A   Clear
10:53 AM 51.1 °F - 28.9 °F 43% 30.20 in 10.0 mi SSW 21.9 mph 27.6 mph N/A   Clear
11:53 AM 55.9 °F - 30.0 °F 37% 30.13 in 10.0 mi SSW 25.3 mph 34.5 mph N/A   Clear
12:53 PM 60.1 °F - 28.0 °F 30% 30.09 in 10.0 mi SW 27.6 mph 38.0 mph N/A   Clear
1:53 PM 62.1 °F - 28.0 °F 28% 30.05 in 10.0 mi SW 27.6 mph 38.0 mph N/A   Clear
2:53 PM 63.0 °F - 28.9 °F 28% 30.04 in 10.0 mi SW 23.0 mph 36.8 mph N/A   Clear
3:53 PM 63.0 °F - 28.9 °F 28% 30.04 in 10.0 mi SW 19.6 mph 31.1 mph N/A   Clear
4:53 PM 60.1 °F - 28.9 °F 31% 30.03 in 10.0 mi SSW 19.6 mph 26.5 mph N/A   Clear
5:53 PM 54.0 °F - 30.0 °F 40% 30.04 in 10.0 mi SSW 10.4 mph - N/A   Clear
6:53 PM 50.0 °F - 30.9 °F 48% 30.04 in 10.0 mi South 13.8 mph - N/A   Clear
7:53 PM 42.1 °F 39.2 °F 28.0 °F 58% 30.07 in 10.0 mi West 4.6 mph - N/A   Clear
8:53 PM 44.1 °F 38.1 °F 30.0 °F 58% 30.04 in 10.0 mi South 11.5 mph - N/A   Clear
9:53 PM 34.0 °F 26.6 °F 28.0 °F 79% 30.04 in 10.0 mi South 9.2 mph - N/A   Clear
10:53 PM 37.9 °F 30.9 °F 30.0 °F 73% 30.02 in 10.0 mi South 10.4 mph - N/A   Clear
11:53 PM 39.9 °F 32.9 °F 30.0 °F 68% 30.01 in 10.0 mi SSW 11.5 mph - N/A   Clear